Year,Month,Day,Hour,Minute,Value (Times are PST for insolation in W/m^2)
2020,05,23,00,00,0.00
2020,05,23,00,01,0.00
2020,05,23,00,02,0.00
2020,05,23,00,03,0.00
2020,05,23,00,04,0.00
2020,05,23,00,05,0.00
2020,05,23,00,06,0.00
2020,05,23,00,07,0.00
2020,05,23,00,08,0.00
2020,05,23,00,09,0.00
2020,05,23,00,10,0.00
2020,05,23,00,11,0.00
2020,05,23,00,12,0.00
2020,05,23,00,13,0.00
2020,05,23,00,14,0.00
2020,05,23,00,15,0.00
2020,05,23,00,16,0.00
2020,05,23,00,17,0.00
2020,05,23,00,18,0.00
2020,05,23,00,19,0.00
2020,05,23,00,20,0.00
2020,05,23,00,21,0.00
2020,05,23,00,22,0.00
2020,05,23,00,23,0.00
2020,05,23,00,24,0.00
2020,05,23,00,25,0.00
2020,05,23,00,26,0.00
2020,05,23,00,27,0.00
2020,05,23,00,28,0.00
2020,05,23,00,29,0.00
2020,05,23,00,30,0.00
2020,05,23,00,31,0.00
2020,05,23,00,32,0.00
2020,05,23,00,33,0.00
2020,05,23,00,34,0.00
2020,05,23,00,35,0.00
2020,05,23,00,36,0.00
2020,05,23,00,37,0.00
2020,05,23,00,38,0.00
2020,05,23,00,39,0.00
2020,05,23,00,40,0.00
2020,05,23,00,41,0.00
2020,05,23,00,42,0.00
2020,05,23,00,43,0.00
2020,05,23,00,44,0.00
2020,05,23,00,45,0.00
2020,05,23,00,46,0.00
2020,05,23,00,47,0.00
2020,05,23,00,48,0.00
2020,05,23,00,49,0.00
2020,05,23,00,50,0.00
2020,05,23,00,51,0.00
2020,05,23,00,52,0.00
2020,05,23,00,53,0.00
2020,05,23,00,54,0.00
2020,05,23,00,55,0.00
2020,05,23,00,56,0.00
2020,05,23,00,57,0.00
2020,05,23,00,58,0.00
2020,05,23,00,59,0.00
2020,05,23,01,00,0.00
2020,05,23,01,01,0.00
2020,05,23,01,02,0.00
2020,05,23,01,03,0.00
2020,05,23,01,04,0.00
2020,05,23,01,05,0.00
2020,05,23,01,06,0.00
2020,05,23,01,07,0.00
2020,05,23,01,08,0.00
2020,05,23,01,09,0.00
2020,05,23,01,10,0.00
2020,05,23,01,11,0.00
2020,05,23,01,12,0.00
2020,05,23,01,13,0.00
2020,05,23,01,14,0.00
2020,05,23,01,15,0.00
2020,05,23,01,16,0.00
2020,05,23,01,17,0.00
2020,05,23,01,18,0.00
2020,05,23,01,19,0.00
2020,05,23,01,20,0.00
2020,05,23,01,21,0.00
2020,05,23,01,22,0.00
2020,05,23,01,23,0.00
2020,05,23,01,24,0.00
2020,05,23,01,25,0.00
2020,05,23,01,26,0.00
2020,05,23,01,27,0.00
2020,05,23,01,28,0.00
2020,05,23,01,29,0.00
2020,05,23,01,30,0.00
2020,05,23,01,31,0.00
2020,05,23,01,32,0.00
2020,05,23,01,33,0.00
2020,05,23,01,34,0.00
2020,05,23,01,35,0.00
2020,05,23,01,36,0.00
2020,05,23,01,37,0.00
2020,05,23,01,38,0.00
2020,05,23,01,39,0.00
2020,05,23,01,40,0.00
2020,05,23,01,41,0.00
2020,05,23,01,42,0.00
2020,05,23,01,43,0.00
2020,05,23,01,44,0.00
2020,05,23,01,45,0.00
2020,05,23,01,46,0.00
2020,05,23,01,47,0.00
2020,05,23,01,48,0.00
2020,05,23,01,49,0.00
2020,05,23,01,50,0.00
2020,05,23,01,51,0.00
2020,05,23,01,52,0.00
2020,05,23,01,53,0.00
2020,05,23,01,54,0.00
2020,05,23,01,55,0.00
2020,05,23,01,56,0.00
2020,05,23,01,57,0.00
2020,05,23,01,58,0.00
2020,05,23,01,59,0.00
2020,05,23,02,00,0.00
2020,05,23,02,01,0.00
2020,05,23,02,02,0.00
2020,05,23,02,03,0.00
2020,05,23,02,04,0.00
2020,05,23,02,05,0.00
2020,05,23,02,06,0.00
2020,05,23,02,07,0.00
2020,05,23,02,08,0.00
2020,05,23,02,09,0.00
2020,05,23,02,10,0.00
2020,05,23,02,11,0.00
2020,05,23,02,12,0.00
2020,05,23,02,13,0.00
2020,05,23,02,14,0.00
2020,05,23,02,15,0.00
2020,05,23,02,16,0.00
2020,05,23,02,17,0.00
2020,05,23,02,18,0.00
2020,05,23,02,19,0.00
2020,05,23,02,20,0.00
2020,05,23,02,21,0.00
2020,05,23,02,22,0.00
2020,05,23,02,23,0.00
2020,05,23,02,24,0.00
2020,05,23,02,25,0.00
2020,05,23,02,26,0.00
2020,05,23,02,27,0.00
2020,05,23,02,28,0.00
2020,05,23,02,29,0.00
2020,05,23,02,30,0.00
2020,05,23,02,31,0.00
2020,05,23,02,32,0.00
2020,05,23,02,33,0.00
2020,05,23,02,34,0.00
2020,05,23,02,35,0.00
2020,05,23,02,36,0.00
2020,05,23,02,37,0.00
2020,05,23,02,38,0.00
2020,05,23,02,39,0.00
2020,05,23,02,40,0.00
2020,05,23,02,41,0.00
2020,05,23,02,42,0.00
2020,05,23,02,43,0.00
2020,05,23,02,44,0.00
2020,05,23,02,45,0.00
2020,05,23,02,46,0.00
2020,05,23,02,47,0.00
2020,05,23,02,48,0.00
2020,05,23,02,49,0.00
2020,05,23,02,50,0.00
2020,05,23,02,51,0.00
2020,05,23,02,52,0.00
2020,05,23,02,53,0.00
2020,05,23,02,54,0.00
2020,05,23,02,55,0.00
2020,05,23,02,56,0.00
2020,05,23,02,57,0.00
2020,05,23,02,58,0.00
2020,05,23,02,59,0.00
2020,05,23,03,00,0.00
2020,05,23,03,01,0.00
2020,05,23,03,02,0.00
2020,05,23,03,03,0.00
2020,05,23,03,04,0.00
2020,05,23,03,05,0.00
2020,05,23,03,06,0.00
2020,05,23,03,07,0.00
2020,05,23,03,08,0.00
2020,05,23,03,09,0.00
2020,05,23,03,10,0.00
2020,05,23,03,11,0.00
2020,05,23,03,12,0.00
2020,05,23,03,13,0.00
2020,05,23,03,14,0.00
2020,05,23,03,15,0.00
2020,05,23,03,16,0.00
2020,05,23,03,17,0.00
2020,05,23,03,18,0.00
2020,05,23,03,19,0.00
2020,05,23,03,20,0.00
2020,05,23,03,21,0.00
2020,05,23,03,22,0.00
2020,05,23,03,23,0.00
2020,05,23,03,24,0.00
2020,05,23,03,25,0.00
2020,05,23,03,26,0.00
2020,05,23,03,27,0.00
2020,05,23,03,28,0.00
2020,05,23,03,29,0.00
2020,05,23,03,30,0.00
2020,05,23,03,31,0.00
2020,05,23,03,32,0.00
2020,05,23,03,33,0.00
2020,05,23,03,34,0.00
2020,05,23,03,35,0.00
2020,05,23,03,36,0.00
2020,05,23,03,37,0.00
2020,05,23,03,38,0.00
2020,05,23,03,39,0.00
2020,05,23,03,40,0.00
2020,05,23,03,41,0.00
2020,05,23,03,42,0.00
2020,05,23,03,43,0.00
2020,05,23,03,44,0.00
2020,05,23,03,45,0.00
2020,05,23,03,46,0.00
2020,05,23,03,47,0.00
2020,05,23,03,48,0.00
2020,05,23,03,49,0.00
2020,05,23,03,50,0.00
2020,05,23,03,51,0.00
2020,05,23,03,52,0.00
2020,05,23,03,53,0.00
2020,05,23,03,54,0.00
2020,05,23,03,55,0.00
2020,05,23,03,56,0.00
2020,05,23,03,57,0.00
2020,05,23,03,58,0.00
2020,05,23,03,59,0.00
2020,05,23,04,00,0.00
2020,05,23,04,01,0.00
2020,05,23,04,02,0.00
2020,05,23,04,03,0.00
2020,05,23,04,04,0.00
2020,05,23,04,05,0.00
2020,05,23,04,06,0.00
2020,05,23,04,07,0.00
2020,05,23,04,08,0.00
2020,05,23,04,09,0.00
2020,05,23,04,10,0.00
2020,05,23,04,11,0.00
2020,05,23,04,12,0.00
2020,05,23,04,13,0.00
2020,05,23,04,14,0.00
2020,05,23,04,15,0.00
2020,05,23,04,16,0.00
2020,05,23,04,17,0.00
2020,05,23,04,18,0.00
2020,05,23,04,19,0.00
2020,05,23,04,20,0.00
2020,05,23,04,21,0.00
2020,05,23,04,22,0.00
2020,05,23,04,23,0.00
2020,05,23,04,24,0.00
2020,05,23,04,25,0.00
2020,05,23,04,26,0.00
2020,05,23,04,27,0.00
2020,05,23,04,28,0.00
2020,05,23,04,29,0.00
2020,05,23,04,30,0.00
2020,05,23,04,31,0.00
2020,05,23,04,32,0.00
2020,05,23,04,33,0.00
2020,05,23,04,34,0.00
2020,05,23,04,35,0.00
2020,05,23,04,36,0.00
2020,05,23,04,37,0.00
2020,05,23,04,38,0.00
2020,05,23,04,39,0.00
2020,05,23,04,40,0.00
2020,05,23,04,41,0.00
2020,05,23,04,42,0.00
2020,05,23,04,43,0.00
2020,05,23,04,44,0.00
2020,05,23,04,45,0.00
2020,05,23,04,46,0.00
2020,05,23,04,47,0.00
2020,05,23,04,48,0.00
2020,05,23,04,49,0.00
2020,05,23,04,50,0.00
2020,05,23,04,51,0.00
2020,05,23,04,52,0.00
2020,05,23,04,53,0.00
2020,05,23,04,54,0.00
2020,05,23,04,55,0.00
2020,05,23,04,56,0.00
2020,05,23,04,57,0.00
2020,05,23,04,58,0.00
2020,05,23,04,59,0.00
2020,05,23,05,00,0.00
2020,05,23,05,01,0.00
2020,05,23,05,02,0.00
2020,05,23,05,03,0.00
2020,05,23,05,04,0.00
2020,05,23,05,05,0.00
2020,05,23,05,06,0.00
2020,05,23,05,07,0.00
2020,05,23,05,08,0.00
2020,05,23,05,09,0.00
2020,05,23,05,10,0.00
2020,05,23,05,11,0.00
2020,05,23,05,12,0.00
2020,05,23,05,13,0.00
2020,05,23,05,14,0.00
2020,05,23,05,15,0.00
2020,05,23,05,16,0.00
2020,05,23,05,17,0.00
2020,05,23,05,18,0.00
2020,05,23,05,19,0.00
2020,05,23,05,20,0.20
2020,05,23,05,21,5.00
2020,05,23,05,22,5.00
2020,05,23,05,23,5.00
2020,05,23,05,24,5.00
2020,05,23,05,25,5.00
2020,05,23,05,26,5.00
2020,05,23,05,27,5.00
2020,05,23,05,28,5.00
2020,05,23,05,29,5.00
2020,05,23,05,30,5.00
2020,05,23,05,31,5.00
2020,05,23,05,32,5.00
2020,05,23,05,33,5.00
2020,05,23,05,34,6.90
2020,05,23,05,35,7.00
2020,05,23,05,36,7.00
2020,05,23,05,37,7.00
2020,05,23,05,38,8.10
2020,05,23,05,39,9.00
2020,05,23,05,40,9.00
2020,05,23,05,41,9.10
2020,05,23,05,42,11.00
2020,05,23,05,43,11.00
2020,05,23,05,44,11.00
2020,05,23,05,45,11.00
2020,05,23,05,46,11.00
2020,05,23,05,47,11.80
2020,05,23,05,48,12.00
2020,05,23,05,49,12.00
2020,05,23,05,50,12.60
2020,05,23,05,51,14.00
2020,05,23,05,52,14.00
2020,05,23,05,53,14.00
2020,05,23,05,54,15.60
2020,05,23,05,55,16.00
2020,05,23,05,56,16.40
2020,05,23,05,57,18.00
2020,05,23,05,58,18.00
2020,05,23,05,59,18.60
2020,05,23,06,00,19.00
2020,05,23,06,01,20.60
2020,05,23,06,02,21.00
2020,05,23,06,03,21.40
2020,05,23,06,04,23.60
2020,05,23,06,05,25.00
2020,05,23,06,06,25.60
2020,05,23,06,07,26.00
2020,05,23,06,08,27.60
2020,05,23,06,09,28.10
2020,05,23,06,10,30.00
2020,05,23,06,11,30.70
2020,05,23,06,12,32.00
2020,05,23,06,13,32.00
2020,05,23,06,14,32.70
2020,05,23,06,15,34.60
2020,05,23,06,16,36.90
2020,05,23,06,17,39.20
2020,05,23,06,18,40.60
2020,05,23,06,19,42.00
2020,05,23,06,20,43.20
2020,05,23,06,21,44.00
2020,05,23,06,22,45.60
2020,05,23,06,23,46.10
2020,05,23,06,24,47.00
2020,05,23,06,25,47.00
2020,05,23,06,26,47.00
2020,05,23,06,27,47.00
2020,05,23,06,28,46.30
2020,05,23,06,29,46.00
2020,05,23,06,30,47.00
2020,05,23,06,31,47.00
2020,05,23,06,32,47.70
2020,05,23,06,33,49.00
2020,05,23,06,34,49.00
2020,05,23,06,35,51.80
2020,05,23,06,36,53.80
2020,05,23,06,37,55.90
2020,05,23,06,38,58.40
2020,05,23,06,39,60.00
2020,05,23,06,40,60.90
2020,05,23,06,41,62.00
2020,05,23,06,42,62.00
2020,05,23,06,43,62.80
2020,05,23,06,44,63.00
2020,05,23,06,45,63.40
2020,05,23,06,46,65.00
2020,05,23,06,47,65.90
2020,05,23,06,48,67.00
2020,05,23,06,49,68.40
2020,05,23,06,50,69.00
2020,05,23,06,51,69.10
2020,05,23,06,52,70.00
2020,05,23,06,53,70.00
2020,05,23,06,54,70.00
2020,05,23,06,55,70.00
2020,05,23,06,56,71.40
2020,05,23,06,57,72.00
2020,05,23,06,58,72.10
2020,05,23,06,59,74.00
2020,05,23,07,00,74.70
2020,05,23,07,01,76.00
2020,05,23,07,02,76.60
2020,05,23,07,03,78.40
2020,05,23,07,04,79.00
2020,05,23,07,05,81.10
2020,05,23,07,06,83.20
2020,05,23,07,07,84.00
2020,05,23,07,08,84.90
2020,05,23,07,09,86.00
2020,05,23,07,10,87.30
2020,05,23,07,11,88.00
2020,05,23,07,12,89.90
2020,05,23,07,13,90.20
2020,05,23,07,14,91.60
2020,05,23,07,15,93.90
2020,05,23,07,16,96.70
2020,05,23,07,17,99.40
2020,05,23,07,18,103.30
2020,05,23,07,19,106.90
2020,05,23,07,20,111.40
2020,05,23,07,21,113.90
2020,05,23,07,22,116.80
2020,05,23,07,23,119.70
2020,05,23,07,24,122.40
2020,05,23,07,25,124.60
2020,05,23,07,26,127.00
2020,05,23,07,27,128.80
2020,05,23,07,28,132.60
2020,05,23,07,29,135.30
2020,05,23,07,30,138.20
2020,05,23,07,31,139.00
2020,05,23,07,32,139.00
2020,05,23,07,33,135.10
2020,05,23,07,34,133.60
2020,05,23,07,35,130.70
2020,05,23,07,36,128.00
2020,05,23,07,37,130.40
2020,05,23,07,38,132.00
2020,05,23,07,39,133.60
2020,05,23,07,40,127.30
2020,05,23,07,41,127.90
2020,05,23,07,42,133.60
2020,05,23,07,43,141.20
2020,05,23,07,44,149.90
2020,05,23,07,45,162.90
2020,05,23,07,46,182.50
2020,05,23,07,47,177.90
2020,05,23,07,48,184.00
2020,05,23,07,49,234.70
2020,05,23,07,50,211.60
2020,05,23,07,51,206.60
2020,05,23,07,52,214.70
2020,05,23,07,53,196.10
2020,05,23,07,54,221.80
2020,05,23,07,55,203.40
2020,05,23,07,56,216.70
2020,05,23,07,57,207.10
2020,05,23,07,58,214.90
2020,05,23,07,59,205.30
2020,05,23,08,00,200.00
2020,05,23,08,01,191.40
2020,05,23,08,02,194.70
2020,05,23,08,03,175.30
2020,05,23,08,04,174.00
2020,05,23,08,05,175.20
2020,05,23,08,06,178.10
2020,05,23,08,07,180.70
2020,05,23,08,08,185.90
2020,05,23,08,09,190.40
2020,05,23,08,10,192.00
2020,05,23,08,11,193.30
2020,05,23,08,12,197.20
2020,05,23,08,13,199.00
2020,05,23,08,14,203.10
2020,05,23,08,15,197.20
2020,05,23,08,16,192.80
2020,05,23,08,17,192.00
2020,05,23,08,18,192.00
2020,05,23,08,19,189.80
2020,05,23,08,20,192.90
2020,05,23,08,21,195.00
2020,05,23,08,22,189.00
2020,05,23,08,23,195.00
2020,05,23,08,24,200.30
2020,05,23,08,25,218.30
2020,05,23,08,26,228.90
2020,05,23,08,27,232.00
2020,05,23,08,28,306.10
2020,05,23,08,29,294.50
2020,05,23,08,30,285.10
2020,05,23,08,31,338.00
2020,05,23,08,32,317.10
2020,05,23,08,33,283.20
2020,05,23,08,34,332.90
2020,05,23,08,35,287.00
2020,05,23,08,36,275.40
2020,05,23,08,37,292.00
2020,05,23,08,38,278.70
2020,05,23,08,39,291.30
2020,05,23,08,40,308.00
2020,05,23,08,41,369.90
2020,05,23,08,42,379.70
2020,05,23,08,43,418.60
2020,05,23,08,44,428.50
2020,05,23,08,45,456.40
2020,05,23,08,46,450.60
2020,05,23,08,47,445.00
2020,05,23,08,48,495.70
2020,05,23,08,49,509.70
2020,05,23,08,50,436.90
2020,05,23,08,51,429.70
2020,05,23,08,52,398.70
2020,05,23,08,53,393.60
2020,05,23,08,54,403.00
2020,05,23,08,55,401.50
2020,05,23,08,56,426.40
2020,05,23,08,57,444.20
2020,05,23,08,58,447.50
2020,05,23,08,59,469.20
2020,05,23,09,00,457.10
2020,05,23,09,01,435.40
2020,05,23,09,02,425.70
2020,05,23,09,03,384.60
2020,05,23,09,04,415.00
2020,05,23,09,05,435.90
2020,05,23,09,06,490.00
2020,05,23,09,07,463.60
2020,05,23,09,08,434.40
2020,05,23,09,09,383.50
2020,05,23,09,10,390.40
2020,05,23,09,11,396.00
2020,05,23,09,12,397.30
2020,05,23,09,13,403.00
2020,05,23,09,14,439.80
2020,05,23,09,15,441.70
2020,05,23,09,16,427.60
2020,05,23,09,17,466.50
2020,05,23,09,18,424.20
2020,05,23,09,19,383.90
2020,05,23,09,20,347.70
2020,05,23,09,21,332.10
2020,05,23,09,22,336.00
2020,05,23,09,23,331.20
2020,05,23,09,24,342.70
2020,05,23,09,25,345.10
2020,05,23,09,26,343.90
2020,05,23,09,27,339.00
2020,05,23,09,28,352.70
2020,05,23,09,29,424.30
2020,05,23,09,30,461.00
2020,05,23,09,31,493.30
2020,05,23,09,32,542.60
2020,05,23,09,33,505.20
2020,05,23,09,34,478.70
2020,05,23,09,35,548.70
2020,05,23,09,36,618.30
2020,05,23,09,37,645.00
2020,05,23,09,38,645.00
2020,05,23,09,39,495.50
2020,05,23,09,40,486.60
2020,05,23,09,41,432.70
2020,05,23,09,42,431.70
2020,05,23,09,43,471.70
2020,05,23,09,44,514.30
2020,05,23,09,45,555.10
2020,05,23,09,46,531.10
2020,05,23,09,47,502.30
2020,05,23,09,48,499.00
2020,05,23,09,49,536.50
2020,05,23,09,50,591.00
2020,05,23,09,51,591.00
2020,05,23,09,52,686.30
2020,05,23,09,53,639.80
2020,05,23,09,54,603.00
2020,05,23,09,55,603.00
2020,05,23,09,56,603.00
2020,05,23,09,57,603.00
2020,05,23,09,58,603.00
2020,05,23,09,59,594.00
2020,05,23,10,00,516.10
2020,05,23,10,01,510.00
2020,05,23,10,02,548.80
2020,05,23,10,03,636.00
2020,05,23,10,04,590.40
2020,05,23,10,05,570.90
2020,05,23,10,06,573.90
2020,05,23,10,07,564.90
2020,05,23,10,08,568.80
2020,05,23,10,09,559.00
2020,05,23,10,10,483.90
2020,05,23,10,11,424.40
2020,05,23,10,12,448.00
2020,05,23,10,13,448.00
2020,05,23,10,14,454.90
2020,05,23,10,15,557.70
2020,05,23,10,16,623.30
2020,05,23,10,17,612.00
2020,05,23,10,18,697.00
2020,05,23,10,19,765.00
2020,05,23,10,20,948.30
2020,05,23,10,21,920.00
2020,05,23,10,22,869.10
2020,05,23,10,23,848.20
2020,05,23,10,24,842.00
2020,05,23,10,25,666.40
2020,05,23,10,26,509.30
2020,05,23,10,27,491.20
2020,05,23,10,28,490.10
2020,05,23,10,29,496.20
2020,05,23,10,30,497.60
2020,05,23,10,31,497.70
2020,05,23,10,32,493.80
2020,05,23,10,33,488.50
2020,05,23,10,34,481.30
2020,05,23,10,35,475.60
2020,05,23,10,36,468.00
2020,05,23,10,37,463.10
2020,05,23,10,38,459.20
2020,05,23,10,39,452.00
2020,05,23,10,40,444.70
2020,05,23,10,41,443.00
2020,05,23,10,42,448.20
2020,05,23,10,43,459.40
2020,05,23,10,44,472.60
2020,05,23,10,45,491.90
2020,05,23,10,46,518.60
2020,05,23,10,47,531.00
2020,05,23,10,48,552.20
2020,05,23,10,49,547.70
2020,05,23,10,50,543.70
2020,05,23,10,51,530.30
2020,05,23,10,52,508.40
2020,05,23,10,53,498.40
2020,05,23,10,54,482.70
2020,05,23,10,55,478.00
2020,05,23,10,56,469.30
2020,05,23,10,57,469.40
2020,05,23,10,58,471.60
2020,05,23,10,59,472.10
2020,05,23,11,00,473.80
2020,05,23,11,01,477.40
2020,05,23,11,02,476.40
2020,05,23,11,03,476.30
2020,05,23,11,04,480.00
2020,05,23,11,05,480.00
2020,05,23,11,06,481.30
2020,05,23,11,07,487.00
2020,05,23,11,08,484.60
2020,05,23,11,09,474.40
2020,05,23,11,10,469.30
2020,05,23,11,11,469.70
2020,05,23,11,12,473.60
2020,05,23,11,13,478.10
2020,05,23,11,14,492.60
2020,05,23,11,15,494.70
2020,05,23,11,16,496.10
2020,05,23,11,17,506.00
2020,05,23,11,18,515.90
2020,05,23,11,19,528.30
2020,05,23,11,20,552.10
2020,05,23,11,21,548.90
2020,05,23,11,22,542.00
2020,05,23,11,23,547.10
2020,05,23,11,24,553.40
2020,05,23,11,25,554.40
2020,05,23,11,26,584.30
2020,05,23,11,27,565.00
2020,05,23,11,28,565.00
2020,05,23,11,29,554.70
2020,05,23,11,30,559.30
2020,05,23,11,31,567.00
2020,05,23,11,32,547.40
2020,05,23,11,33,538.70
2020,05,23,11,34,541.00
2020,05,23,11,35,540.00
2020,05,23,11,36,541.70
2020,05,23,11,37,551.60
2020,05,23,11,38,553.80
2020,05,23,11,39,594.70
2020,05,23,11,40,618.30
2020,05,23,11,41,652.10
2020,05,23,11,42,608.80
2020,05,23,11,43,587.00
2020,05,23,11,44,582.00
2020,05,23,11,45,587.40
2020,05,23,11,46,570.40
2020,05,23,11,47,563.70
2020,05,23,11,48,578.60
2020,05,23,11,49,605.10
2020,05,23,11,50,579.70
2020,05,23,11,51,550.90
2020,05,23,11,52,531.10
2020,05,23,11,53,523.20
2020,05,23,11,54,537.00
2020,05,23,11,55,576.80
2020,05,23,11,56,557.50
2020,05,23,11,57,542.90
2020,05,23,11,58,558.00
2020,05,23,11,59,565.00
2020,05,23,12,00,578.00
2020,05,23,12,01,578.00
2020,05,23,12,02,582.00
2020,05,23,12,03,603.60
2020,05,23,12,04,649.50
2020,05,23,12,05,597.20
2020,05,23,12,06,586.10
2020,05,23,12,07,564.70
2020,05,23,12,08,548.30
2020,05,23,12,09,545.00
2020,05,23,12,10,542.20
2020,05,23,12,11,530.90
2020,05,23,12,12,521.30
2020,05,23,12,13,512.40
2020,05,23,12,14,512.40
2020,05,23,12,15,510.90
2020,05,23,12,16,513.00
2020,05,23,12,17,516.30
2020,05,23,12,18,524.60
2020,05,23,12,19,545.70
2020,05,23,12,20,542.60
2020,05,23,12,21,559.60
2020,05,23,12,22,599.70
2020,05,23,12,23,643.10
2020,05,23,12,24,605.90
2020,05,23,12,25,584.10
2020,05,23,12,26,566.40
2020,05,23,12,27,584.00
2020,05,23,12,28,589.80
2020,05,23,12,29,577.00
2020,05,23,12,30,611.20
2020,05,23,12,31,628.80
2020,05,23,12,32,580.30
2020,05,23,12,33,559.60
2020,05,23,12,34,548.60
2020,05,23,12,35,546.30
2020,05,23,12,36,550.40
2020,05,23,12,37,569.20
2020,05,23,12,38,542.10
2020,05,23,12,39,513.00
2020,05,23,12,40,501.00
2020,05,23,12,41,498.90
2020,05,23,12,42,499.00
2020,05,23,12,43,519.00
2020,05,23,12,44,537.90
2020,05,23,12,45,554.60
2020,05,23,12,46,597.00
2020,05,23,12,47,596.60
2020,05,23,12,48,604.20
2020,05,23,12,49,596.00
2020,05,23,12,50,599.00
2020,05,23,12,51,611.90
2020,05,23,12,52,643.00
2020,05,23,12,53,690.10
2020,05,23,12,54,678.20
2020,05,23,12,55,665.20
2020,05,23,12,56,646.50
2020,05,23,12,57,632.20
2020,05,23,12,58,635.00
2020,05,23,12,59,663.30
2020,05,23,13,00,683.30
2020,05,23,13,01,699.10
2020,05,23,13,02,687.70
2020,05,23,13,03,615.70
2020,05,23,13,04,584.70
2020,05,23,13,05,541.40
2020,05,23,13,06,510.30
2020,05,23,13,07,487.10
2020,05,23,13,08,480.60
2020,05,23,13,09,485.60
2020,05,23,13,10,498.20
2020,05,23,13,11,511.40
2020,05,23,13,12,522.10
2020,05,23,13,13,530.40
2020,05,23,13,14,543.10
2020,05,23,13,15,582.90
2020,05,23,13,16,565.40
2020,05,23,13,17,520.40
2020,05,23,13,18,493.30
2020,05,23,13,19,486.10
2020,05,23,13,20,488.90
2020,05,23,13,21,499.70
2020,05,23,13,22,514.40
2020,05,23,13,23,526.90
2020,05,23,13,24,536.00
2020,05,23,13,25,537.50
2020,05,23,13,26,538.80
2020,05,23,13,27,533.20
2020,05,23,13,28,526.30
2020,05,23,13,29,515.00
2020,05,23,13,30,503.90
2020,05,23,13,31,494.60
2020,05,23,13,32,496.10
2020,05,23,13,33,496.20
2020,05,23,13,34,497.90
2020,05,23,13,35,492.30
2020,05,23,13,36,485.90
2020,05,23,13,37,478.20
2020,05,23,13,38,475.80
2020,05,23,13,39,474.40
2020,05,23,13,40,473.00
2020,05,23,13,41,474.70
2020,05,23,13,42,480.90
2020,05,23,13,43,490.30
2020,05,23,13,44,496.70
2020,05,23,13,45,494.70
2020,05,23,13,46,487.00
2020,05,23,13,47,485.50
2020,05,23,13,48,498.40
2020,05,23,13,49,522.70
2020,05,23,13,50,555.40
2020,05,23,13,51,593.10
2020,05,23,13,52,635.00
2020,05,23,13,53,632.30
2020,05,23,13,54,624.00
2020,05,23,13,55,601.60
2020,05,23,13,56,595.30
2020,05,23,13,57,599.00
2020,05,23,13,58,617.00
2020,05,23,13,59,844.10
2020,05,23,14,00,833.70
2020,05,23,14,01,756.40
2020,05,23,14,02,710.10
2020,05,23,14,03,711.70
2020,05,23,14,04,744.30
2020,05,23,14,05,712.30
2020,05,23,14,06,630.20
2020,05,23,14,07,608.00
2020,05,23,14,08,630.60
2020,05,23,14,09,699.90
2020,05,23,14,10,739.70
2020,05,23,14,11,683.30
2020,05,23,14,12,620.30
2020,05,23,14,13,640.00
2020,05,23,14,14,672.00
2020,05,23,14,15,688.70
2020,05,23,14,16,693.00
2020,05,23,14,17,731.70
2020,05,23,14,18,708.70
2020,05,23,14,19,623.90
2020,05,23,14,20,578.80
2020,05,23,14,21,550.00
2020,05,23,14,22,532.00
2020,05,23,14,23,528.20
2020,05,23,14,24,527.70
2020,05,23,14,25,526.20
2020,05,23,14,26,520.20
2020,05,23,14,27,519.80
2020,05,23,14,28,515.10
2020,05,23,14,29,506.90
2020,05,23,14,30,513.20
2020,05,23,14,31,514.30
2020,05,23,14,32,513.00
2020,05,23,14,33,504.80
2020,05,23,14,34,505.60
2020,05,23,14,35,504.70
2020,05,23,14,36,506.00
2020,05,23,14,37,509.30
2020,05,23,14,38,517.30
2020,05,23,14,39,527.00
2020,05,23,14,40,544.20
2020,05,23,14,41,549.60
2020,05,23,14,42,545.80
2020,05,23,14,43,540.60
2020,05,23,14,44,524.40
2020,05,23,14,45,503.30
2020,05,23,14,46,487.60
2020,05,23,14,47,474.70
2020,05,23,14,48,465.30
2020,05,23,14,49,463.30
2020,05,23,14,50,470.00
2020,05,23,14,51,480.90
2020,05,23,14,52,492.60
2020,05,23,14,53,500.10
2020,05,23,14,54,505.50
2020,05,23,14,55,498.70
2020,05,23,14,56,475.30
2020,05,23,14,57,456.00
2020,05,23,14,58,438.20
2020,05,23,14,59,424.00
2020,05,23,15,00,410.20
2020,05,23,15,01,396.70
2020,05,23,15,02,386.50
2020,05,23,15,03,377.30
2020,05,23,15,04,367.00
2020,05,23,15,05,358.10
2020,05,23,15,06,350.10
2020,05,23,15,07,343.90
2020,05,23,15,08,338.00
2020,05,23,15,09,331.40
2020,05,23,15,10,327.00
2020,05,23,15,11,320.80
2020,05,23,15,12,315.00
2020,05,23,15,13,308.10
2020,05,23,15,14,302.00
2020,05,23,15,15,297.10
2020,05,23,15,16,291.60
2020,05,23,15,17,289.00
2020,05,23,15,18,286.20
2020,05,23,15,19,285.00
2020,05,23,15,20,283.60
2020,05,23,15,21,283.00
2020,05,23,15,22,281.10
2020,05,23,15,23,280.60
2020,05,23,15,24,278.70
2020,05,23,15,25,276.20
2020,05,23,15,26,271.20
2020,05,23,15,27,265.50
2020,05,23,15,28,258.30
2020,05,23,15,29,250.70
2020,05,23,15,30,242.50
2020,05,23,15,31,234.20
2020,05,23,15,32,226.90
2020,05,23,15,33,220.20
2020,05,23,15,34,215.30
2020,05,23,15,35,211.60
2020,05,23,15,36,207.20
2020,05,23,15,37,203.30
2020,05,23,15,38,199.10
2020,05,23,15,39,196.20
2020,05,23,15,40,193.90
2020,05,23,15,41,194.30
2020,05,23,15,42,196.60
2020,05,23,15,43,199.00
2020,05,23,15,44,202.40
2020,05,23,15,45,204.60
2020,05,23,15,46,206.40
2020,05,23,15,47,208.10
2020,05,23,15,48,209.00
2020,05,23,15,49,209.00
2020,05,23,15,50,209.00
2020,05,23,15,51,209.40
2020,05,23,15,52,211.00
2020,05,23,15,53,211.00
2020,05,23,15,54,211.00
2020,05,23,15,55,211.00
2020,05,23,15,56,211.00
2020,05,23,15,57,208.90
2020,05,23,15,58,206.40
2020,05,23,15,59,203.40
2020,05,23,16,00,200.70
2020,05,23,16,01,197.90
2020,05,23,16,02,195.60
2020,05,23,16,03,193.40
2020,05,23,16,04,193.00
2020,05,23,16,05,193.40
2020,05,23,16,06,195.00
2020,05,23,16,07,195.90
2020,05,23,16,08,198.10
2020,05,23,16,09,201.00
2020,05,23,16,10,203.60
2020,05,23,16,11,206.90
2020,05,23,16,12,209.40
2020,05,23,16,13,211.60
2020,05,23,16,14,213.00
2020,05,23,16,15,213.00
2020,05,23,16,16,213.00
2020,05,23,16,17,213.00
2020,05,23,16,18,211.10
2020,05,23,16,19,210.60
2020,05,23,16,20,209.00
2020,05,23,16,21,209.90
2020,05,23,16,22,211.00
2020,05,23,16,23,212.40
2020,05,23,16,24,213.00
2020,05,23,16,25,213.00
2020,05,23,16,26,213.00
2020,05,23,16,27,212.30
2020,05,23,16,28,210.20
2020,05,23,16,29,207.90
2020,05,23,16,30,206.30
2020,05,23,16,31,204.40
2020,05,23,16,32,202.10
2020,05,23,16,33,201.60
2020,05,23,16,34,200.00
2020,05,23,16,35,200.00
2020,05,23,16,36,199.40
2020,05,23,16,37,199.00
2020,05,23,16,38,199.00
2020,05,23,16,39,197.00
2020,05,23,16,40,195.00
2020,05,23,16,41,194.40
2020,05,23,16,42,191.70
2020,05,23,16,43,188.80
2020,05,23,16,44,188.00
2020,05,23,16,45,186.40
2020,05,23,16,46,185.90
2020,05,23,16,47,185.00
2020,05,23,16,48,185.30
2020,05,23,16,49,186.00
2020,05,23,16,50,186.00
2020,05,23,16,51,187.30
2020,05,23,16,52,188.00
2020,05,23,16,53,189.90
2020,05,23,16,54,190.40
2020,05,23,16,55,192.30
2020,05,23,16,56,193.00
2020,05,23,16,57,193.00
2020,05,23,16,58,193.00
2020,05,23,16,59,193.00
2020,05,23,17,00,194.90
2020,05,23,17,01,195.70
2020,05,23,17,02,200.00
2020,05,23,17,03,202.90
2020,05,23,17,04,205.70
2020,05,23,17,05,209.80
2020,05,23,17,06,212.60
2020,05,23,17,07,214.10
2020,05,23,17,08,216.40